Location: Unspecified
(50.7693°N, 0.0000°E)
Time: 14:56:36
(UTC+00:00)

Transit 2A - Pass Details

Date: 27 June 2019
Orbit: 594 x 965 km, 66.7° (Epoch: 16 July)

Event Time Altitude Azimuth Distance (km) Brightness Sun altitude
Rises 06:16:42 0° 321° (NW) 3,522 9.2 20.0°
Reaches altitude 10° 06:19:29 10° 329° (NNW) 2,527 8.6 20.4°
Maximum altitude 06:24:56 40° 38° (NE) 1,195 8.0 21.2°
Drops below altitude 10° 06:29:52 10° 108° (ESE) 2,280 9.7 22.0°
Sets 06:32:16 0° 116° (ESE) 3,140 10.0 22.4°
